This is the latest recevied weather packets stored in our database for station/object EA1CZ-10. If no packets are shown the sender has not sent any weather packets the latest 10 day(s).
| Time | Temp. | Humidity | Pressure | Rain* | Wind** | Luminosity | Snow |
|---|---|---|---|---|---|---|---|
| 1777693235 | 8.89° C | 68% | 1030.3 hPa | - | - | - | - |
| 1777691435 | 8.33° C | 68% | 1030.3 hPa | - | - | - | - |
| 1777689635 | 8.89° C | 68% | 1030.5 hPa | - | - | - | - |
| 1777687835 | 9.44° C | 68% | 1030.7 hPa | - | - | - | - |
| 1777686035 | 9.44° C | 68% | 1030.8 hPa | - | - | - | - |
| 1777684235 | 9.44° C | 68% | 1031.1 hPa | - | - | - | - |
| 1777682435 | 9.44° C | 68% | 1031.4 hPa | - | - | - | - |
| 1777680634 | 9.44° C | 68% | 1031.5 hPa | - | - | - | - |
| 1777678834 | 8.89° C | 68% | 1031.9 hPa | - | - | - | - |
| 1777677034 | 8.89° C | 67% | 1031.9 hPa | - | - | - | - |
| 1777675234 | 8.89° C | 67% | 1031.9 hPa | - | - | - | - |
| 1777673434 | 9.44° C | 67% | 1032.3 hPa | - | - | - | - |
| 1777671633 | 13.89° C | 65% | 1032.6 hPa | - | - | - | - |
| 1777669833 | 14.44° C | 64% | 1032.8 hPa | - | - | - | - |
| 1777668033 | 14.44° C | 65% | 1032.4 hPa | - | - | - | - |
| 1777666233 | 14.44° C | 65% | 1032.6 hPa | - | - | - | - |
| 1777664432 | 14.44° C | 65% | 1032.4 hPa | - | - | - | - |
| 1777662632 | 15° C | 65% | 1032.2 hPa | - | - | - | - |
| 1777660832 | 15° C | 64% | 1032.1 hPa | - | - | - | - |
| 1777659031 | 15.56° C | 64% | 1032.1 hPa | - | - | - | - |
| 1777657231 | 16.11° C | 64% | 1032 hPa | - | - | - | - |
| 1777655431 | 16.67° C | 63% | 1032.2 hPa | - | - | - | - |
| 1777653631 | 18.89° C | 63% | 1032.1 hPa | - | - | - | - |
| 1777651831 | 18.89° C | 63% | 1032 hPa | - | - | - | - |
| 1777650031 | 17.22° C | 63% | 1032 hPa | - | - | - | - |
* Rain since midnight (hover to see other rain measurements)
** Current wind speed in m/s (hover to see current wind gust speed)